Volver al catálogo

STARLINK-3973

ActivoComunicacionesVLEO
NORAD 52645·PAYLOAD·🇺🇸 United States

Lanzado May 14, 2022 desde Cape Canaveral Space Force Station

Loading…

Próximos Pases (próximas 24 horas)

TLE

ActualizadoSource: CelesTrak SupGP

Época: Sep 15, 2026, 01:20 UTC

1 52645C 22052AZ  26258.05604167  .00042425  00000+0  13643-2 0  2588
2 52645  53.1580 116.1516 0001339  81.7251 240.9320 15.31680703    12

Sigue STARLINK-3973 en tiempo real con AllMySat

Download on the App Store